[[{"header":{"parameterUnit":"m.s-1","parameterCategory":2,"la1":30.2991,"la2":30.254,"lo1":-89.0895,"lo2":-89.0444,"dy":0.0017,"dx":0.0017,"nx":28,"ny":28,"refTime":"2024-03-18T09:00:00:Z","depth":"0","parameterNumber":2,"parameterNumberName":"U-component_of_CURRENTS"},"data":[0,0,0,0,0,0,0,0,0,0,0,0,0,0,0,0,0,0,0,0,0,0,0,0,0,0,0,0,0,0,0,0,0,0,0,0,0,0,0,0,0,0,0,0,0,0,0,0,0,0,0,0,0,0,0,0,0,0,0.2176,0.2176,0,0.2179,0.2179,0.2179,0.2169,0.2169,0.2169,0.2168,0.2141,0.214,0.214,0,0,0,0,0,0,0,0,0,0,0,0,0,0.2144,0.2145,0.2176,0.2176,0.2176,0.2179,0.2179,0.2178,0.2169,0.2169,0.2168,0.2168,0.2141,0.214,0.214,0,0,0,0,0,0,0,0,0,0,0,0,0,0.2151,0.2145,0.2176,0.2174,0.2174,0.2179,0.2179,0.2178,0.2169,0.2169,0.2168,0.2168,0.2141,0.2141,0.214,0.2136,0,0,0.2137,0.2136,0,0,0,0,0,0,0,0,0.2151,0.2152,0.2174,0.2174,0.2174,0.2175,0.2158,0.2164,0.2169,0.2168,0.2168,0.2168,0.2151,0.2149,0.2147,0.2135,0.2134,0.2136,0.2136,0.2135,0.2135,0,0,0,0,0,0,0,0.2151,0.2152,0.2175,0.2174,0.2174,0.2166,0.2167,0.2158,0.2158,0.2168,0.2168,0.2172,0.2151,0.2148,0.2147,0.2133,0.2136,0.2136,0.2135,0.2135,0.2141,0.2142,0,0,0,0,0,0,0.2156,0.2152,0.2175,0.2175,0.2164,0.2167,0.2168,0.2173,0.2159,0.2157,0.2172,0.2172,0.215,0.2148,0.2146,0.2168,0.2135,0.2135,0.2134,0.214,0.2141,0.2142,0,0,0,0,0,0,0.2155,0.2158,0.2175,0.2165,0.2167,0.2168,0.2174,0.2173,0.2176,0.2163,0.216,0.2177,0.215,0.2147,0.2146,0.2166,0.2134,0.2133,0.2139,0.214,0.2141,0.2195,0,0,0,0,0,0,0.2154,0.2158,0.2162,0.2166,0.2168,0.2184,0.2174,0.2173,0.218,0.2179,0.2165,0.2162,0.215,0.2147,0.2145,0.2164,0.2132,0.2138,0.214,0.2141,0.2193,0.2198,0.2203,0,0,0,0,0,0.2153,0.2156,0.2162,0.2165,0.2174,0.2184,0.2185,0.2183,0.218,0.2184,0.2177,0.2163,0.2155,0.2147,0.2144,0.2163,0.2138,0.2139,0.2141,0.219,0.2197,0.2203,0,0,0,0,0,0,0.2139,0.2155,0.2162,0.2169,0.2181,0.2184,0.2185,0.2188,0.2185,0.2184,0.2169,0.2166,0.2175,0.2159,0.2151,0.2169,0.2145,0.2147,0.2184,0.219,0.2195,0.2207,0.2132,0,0,0,0,0,0.2141,0.2148,0.2165,0.217,0.2178,0.2184,0.2188,0.2192,0.2192,0.2191,0.2183,0.2176,0.2179,0.2176,0.2172,0.2177,0.2186,0.2189,0.2194,0.2198,0.2206,0.2238,0.2248,0.2147,0.2147,0.2147,0,0,0.2134,0.2147,0.2148,0.2169,0.2175,0.2192,0.2185,0.2195,0.221,0.2188,0.2196,0.2193,0.2185,0.2196,0.2198,0.2185,0.2234,0.22,0.2204,0.2209,0.2241,0.2251,0.226,0.2149,0.2148,0.2148,0,0,0.2132,0.2139,0.215,0.2166,0.2188,0.2195,0.2203,0.2214,0.2217,0.2229,0.2223,0.2234,0.2225,0.2232,0.2233,0.2263,0.2262,0.226,0.2293,0.2325,0.2334,0.2342,0.2378,0.2389,0.226,0.2261,0.2261,0,0.2122,0.2146,0.2154,0.2177,0.2192,0.2201,0.2223,0.223,0.2239,0.2252,0.2237,0.2259,0.2247,0.2279,0.2287,0.2276,0.2295,0.2271,0.2334,0.2342,0.2349,0.2383,0.2394,0.2263,0.2263,0.2263,0.2262,0,0.2139,0.216,0.2166,0.2201,0.2218,0.2235,0.2256,0.2272,0.2278,0.229,0.232,0.2312,0.2329,0.2328,0.2314,0.2362,0.236,0.234,0.2321,0.2362,0.2396,0.2407,0.2267,0.2266,0.2265,0.2265,0,0,0.2111,0.2167,0.2171,0.2196,0.2235,0.225,0.2282,0.2318,0.2349,0.2355,0.2395,0.24,0.2405,0.2406,0.2399,0.2419,0.2483,0.2402,0.2402,0.2443,0.2565,0.2594,0.2608,0.2477,0.2479,0.248,0.2573,0,0.2123,0.2173,0.2197,0.2239,0.2267,0.2294,0.2325,0.2359,0.2385,0.2423,0.2432,0.2461,0.2432,0.2449,0.2468,0.2481,0.2512,0.246,0.2514,0.2516,0.2541,0.2622,0.2631,0.2718,0.2584,0.2585,0.2586,0,0.2135,0.2171,0.2218,0.2275,0.2288,0.2313,0.2377,0.2408,0.2465,0.2488,0.2527,0.2535,0.2576,0.2537,0.2596,0.2567,0.2574,0.2578,0.2581,0.2596,0.2565,0.2651,0.2741,0.2733,0.2602,0.2601,0.26,0,0.2124,0.2182,0.2221,0.2241,0.2306,0.2333,0.2367,0.2429,0.2462,0.2537,0.2573,0.262,0.265,0.2669,0.2682,0.2646,0.2747,0.2696,0.2732,0.2734,0.2747,0.2747,0.2839,0.2743,0.2743,0.2743,0.2743,0,0.2129,0.2157,0.2219,0.2242,0.2284,0.2335,0.2389,0.2434,0.2507,0.2565,0.2603,0.2666,0.2685,0.2737,0.273,0.2787,0.2793,0.2767,0.2771,0.2767,0.2767,0.2761,0.2746,0.2746,0.2746,0.2745,0.2744,0,0.2105,0.215,0.2193,0.2262,0.2279,0.231,0.2383,0.2426,0.2506,0.2588,0.2615,0.2714,0.2804,0.2824,0.2878,0.2863,0.2865,0.2909,0.2909,0.2912,0.2919,0.2906,0.2891,0.2775,0.2968,0.297,0.2971,0,0.2094,0.212,0.2188,0.2211,0.2238,0.2291,0.2325,0.2409,0.2466,0.2626,0.2666,0.2788,0.2874,0.2979,0.3012,0.3048,0.2936,0.3044,0.297,0.2956,0.2944,0.2816,0.2706,0.3011,0.3012,0.3014,0.3015,0,0.2068,0.2096,0.2131,0.2178,0.2213,0.2254,0.2321,0.236,0.2484,0.2567,0.2706,0.2795,0.2963,0.3036,0.3105,0.3118,0.2974,0.3069,0.3058,0.3006,0.2869,0.2747,0.291,0.3025,0.3024,0.3023,0.3023,0.3022,0.2034,0.2047,0.2095,0.2128,0.2169,0.2205,0.221,0.2308,0.2386,0.2511,0.2675,0.2811,0.3022,0.3145,0.3131,0.3182,0.306,0.3131,0.3124,0.2999,0.2866,0.3061,0.3173,0.3173,0.3172,0.3172,0.3172,0,0.1971,0.1999,0.2039,0.2069,0.2079,0.2126,0.2186,0.2192,0.2252,0.2456,0.258,0.2869,0.3022,0.3152,0.331,0.3254,0.3068,0.3201,0.3032,0.2916,0.313,0.3114,0.3213,0.3213,0.3213,0.3213,0.3213,0.3213,0.1938,0.1943,0.1965,0.1957,0.1979,0.1955,0.1963,0.201,0.2129,0.2322,0.251,0.2712,0.3092,0.3459,0.3508,0.3408,0.3109,0.3087,0.2945,0.3161,0.3153,0.3144,0.3125,0.3226,0.3226,0.2634,0.263,0.2628]},{"header":{"parameterUnit":"m.s-1","parameterCategory":2,"la1":30.2991,"la2":30.254,"lo1":-89.0895,"lo2":-89.0444,"dy":0.0017,"dx":0.0017,"nx":28,"ny":28,"refTime":"2024-03-18T09:00:00:Z","depth":"0","parameterNumber":3,"parameterNumberName":"V-component_of_CURRENTS"},"data":[0,0,0,0,0,0,0,0,0,0,0,0,0,0,0,0,0,0,0,0,0,0,0,0,0,0,0,0,0,0,0,0,0,0,0,0,0,0,0,0,0,0,0,0,0,0,0,0,0,0,0,0,0,0,0,0,0,0,-0.0425,-0.0426,0,-0.0452,-0.0452,-0.0453,-0.0473,-0.0473,-0.0473,-0.0473,-0.0504,-0.0504,-0.0505,0,0,0,0,0,0,0,0,0,0,0,0,0,-0.045,-0.0449,-0.0425,-0.0426,-0.0426,-0.0452,-0.0452,-0.0453,-0.0473,-0.0473,-0.0473,-0.0473,-0.0503,-0.0504,-0.0505,0,0,0,0,0,0,0,0,0,0,0,0,0,-0.0455,-0.0449,-0.0425,-0.0438,-0.044,-0.0452,-0.0452,-0.0453,-0.0473,-0.0473,-0.0473,-0.0473,-0.0503,-0.0504,-0.0505,-0.0509,0,0,-0.0509,-0.0509,0,0,0,0,0,0,0,0,-0.0455,-0.0454,-0.0436,-0.0437,-0.0439,-0.0458,-0.0472,-0.0472,-0.0473,-0.0462,-0.0473,-0.0474,-0.0488,-0.049,-0.0497,-0.0511,-0.0512,-0.0509,-0.0509,-0.051,-0.051,0,0,0,0,0,0,0,-0.0454,-0.0453,-0.0437,-0.0436,-0.0438,-0.0462,-0.0463,-0.0472,-0.0475,-0.0463,-0.0464,-0.0465,-0.0489,-0.0495,-0.0497,-0.0512,-0.0509,-0.051,-0.051,-0.0511,-0.0526,-0.0526,0,0,0,0,0,0,-0.0445,-0.0453,-0.0436,-0.0438,-0.0446,-0.0462,-0.0462,-0.0453,-0.0475,-0.0478,-0.0465,-0.0466,-0.0494,-0.0496,-0.0499,-0.0489,-0.051,-0.0511,-0.0511,-0.0526,-0.0526,-0.0526,0,0,0,0,0,0,-0.0445,-0.0443,-0.0435,-0.0446,-0.0446,-0.046,-0.045,-0.0453,-0.0457,-0.0476,-0.0479,-0.0465,-0.0494,-0.0497,-0.0502,-0.0491,-0.0511,-0.0512,-0.0526,-0.0526,-0.0526,-0.048,0,0,0,0,0,0,-0.0446,-0.0443,-0.0434,-0.0445,-0.0445,-0.0434,-0.045,-0.0454,-0.0458,-0.0459,-0.0478,-0.0481,-0.0494,-0.05,-0.0503,-0.0493,-0.0513,-0.0527,-0.0526,-0.0526,-0.0482,-0.0478,-0.0475,0,0,0,0,0,-0.0446,-0.0427,-0.0433,-0.0431,-0.0432,-0.0434,-0.0436,-0.0448,-0.0457,-0.0454,-0.0468,-0.048,-0.0499,-0.0501,-0.0504,-0.0494,-0.0527,-0.0526,-0.0526,-0.0484,-0.0479,-0.0475,0,0,0,0,0,0,-0.0427,-0.0428,-0.0434,-0.0414,-0.0422,-0.0436,-0.0434,-0.0445,-0.0454,-0.0455,-0.0476,-0.048,-0.0481,-0.0495,-0.0496,-0.0498,-0.0515,-0.0515,-0.0482,-0.0478,-0.0475,-0.0462,-0.0514,0,0,0,0,0,-0.042,-0.0409,-0.0416,-0.0402,-0.0403,-0.042,-0.0423,-0.0431,-0.0441,-0.0445,-0.0458,-0.0472,-0.0482,-0.0486,-0.0497,-0.0497,-0.0517,-0.0493,-0.049,-0.0487,-0.048,-0.0504,-0.0502,-0.0524,-0.0524,-0.0524,0,0,-0.0409,-0.0408,-0.0401,-0.0398,-0.0406,-0.0398,-0.0422,-0.042,-0.0412,-0.0446,-0.0439,-0.046,-0.048,-0.048,-0.0481,-0.0489,-0.0492,-0.0486,-0.0483,-0.0478,-0.0503,-0.0501,-0.0499,-0.0523,-0.0523,-0.0523,0,0,-0.038,-0.038,-0.0362,-0.0364,-0.0369,-0.038,-0.0377,-0.0388,-0.0392,-0.0392,-0.0415,-0.0428,-0.0441,-0.0454,-0.0462,-0.0448,-0.0474,-0.0452,-0.0422,-0.0445,-0.0444,-0.0442,-0.0466,-0.0467,-0.0448,-0.0448,-0.0448,0,-0.0366,-0.0342,-0.0358,-0.0342,-0.0339,-0.0368,-0.0349,-0.0356,-0.0368,-0.0366,-0.0382,-0.0406,-0.0427,-0.0428,-0.0426,-0.0439,-0.0457,-0.0434,-0.044,-0.044,-0.0439,-0.0464,-0.0466,-0.0446,-0.0446,-0.0446,-0.0447,0,-0.0325,-0.0307,-0.0296,-0.0286,-0.0288,-0.0275,-0.0289,-0.0288,-0.0302,-0.0312,-0.0318,-0.0352,-0.0365,-0.0377,-0.0397,-0.0401,-0.0418,-0.0434,-0.0449,-0.0434,-0.0461,-0.0464,-0.0443,-0.0443,-0.0444,-0.0445,0,0,-0.0284,-0.0269,-0.0264,-0.0247,-0.0255,-0.0245,-0.0239,-0.0236,-0.022,-0.0248,-0.0235,-0.027,-0.0296,-0.0308,-0.0339,-0.0363,-0.0383,-0.0393,-0.0396,-0.0412,-0.0435,-0.046,-0.0466,-0.0401,-0.0401,-0.0401,-0.0456,0,-0.0245,-0.0202,-0.0209,-0.0168,-0.0148,-0.0169,-0.0155,-0.016,-0.0173,-0.0168,-0.0213,-0.0217,-0.0266,-0.0273,-0.0305,-0.036,-0.0388,-0.0366,-0.045,-0.0453,-0.0473,-0.0469,-0.0495,-0.0547,-0.0459,-0.0459,-0.046,0,-0.0198,-0.0176,-0.013,-0.0101,-0.0093,-0.0077,-0.006,-0.0052,-0.0065,-0.0071,-0.0097,-0.0136,-0.0176,-0.022,-0.0309,-0.0293,-0.0358,-0.0408,-0.0411,-0.0451,-0.0482,-0.0548,-0.0556,-0.0763,-0.0464,-0.0464,-0.0464,0,-0.0155,-0.0115,-0.0075,-0.0064,-0.0042,-0.0024,-0.0018,-0.0023,0.0001,-0.0015,-0.0006,-0.0066,-0.0085,-0.0178,-0.029,-0.0299,-0.0389,-0.0416,-0.0501,-0.0503,-0.055,-0.0556,-0.0763,-0.0479,-0.0479,-0.0479,-0.0479,0,-0.0105,-0.0068,-0.0047,-0.002,0.0035,0.0024,0.0075,0.0076,0.0085,0.0129,0.0046,0.0064,-0.0075,-0.0148,-0.0262,-0.0387,-0.0371,-0.0493,-0.0518,-0.0535,-0.0539,-0.074,-0.085,-0.0481,-0.048,-0.048,-0.048,0,-0.0058,-0.0046,0.0012,0.0045,0.006,0.0099,0.0142,0.0183,0.0173,0.0226,0.0224,0.0165,0.0071,-0.008,-0.0223,-0.0339,-0.0595,-0.0514,-0.0525,-0.055,-0.0825,-0.0929,-0.1166,-0.1276,-0.0618,-0.0619,-0.062,0,-0.0027,0.0006,0.0065,0.0108,0.0129,0.0178,0.0222,0.0232,0.0282,0.03,0.034,0.0257,0.0227,-0.0012,-0.0239,-0.0451,-0.0635,-0.0616,-0.0644,-0.0847,-0.0983,-0.1075,-0.1157,-0.0692,-0.0693,-0.0694,-0.0695,0,0.0037,0.0057,0.0106,0.0187,0.0246,0.0311,0.0371,0.0427,0.0454,0.0487,0.0532,0.0501,0.0267,0.0041,-0.0269,-0.0431,-0.08,-0.0644,-0.0858,-0.1061,-0.1173,-0.1286,-0.0651,-0.0704,-0.0703,-0.0703,-0.0702,-0.0702,0.0093,0.0139,0.0205,0.0286,0.0354,0.0446,0.051,0.0577,0.0659,0.0723,0.0689,0.0656,0.0296,-0.0133,-0.0382,-0.0886,-0.0883,-0.1035,-0.1144,-0.1218,-0.1338,-0.0722,-0.08,-0.08,-0.0799,-0.0799,-0.0799,0,0.0175,0.0223,0.0301,0.0401,0.0488,0.0503,0.0618,0.0678,0.0783,0.082,0.0842,0.0611,0.017,-0.0291,-0.0939,-0.1306,-0.1464,-0.1528,-0.1684,-0.1741,-0.1195,-0.1212,-0.138,-0.138,-0.138,-0.1379,-0.1379,-0.1379,0.0223,0.0317,0.0353,0.0506,0.0572,0.0684,0.0754,0.0827,0.0866,0.0867,0.0807,0.0737,0.0291,-0.0792,-0.1636,-0.1824,-0.2129,-0.2191,-0.2334,-0.198,-0.1942,-0.1907,-0.1951,-0.2271,-0.2272,-0.2849,-0.2855,-0.2859]}],[{"header":{"parameterUnit":"m.s-1","parameterCategory":2,"la1":30.2991,"la2":30.254,"lo1":-89.0895,"lo2":-89.0444,"dy":0.0017,"dx":0.0017,"nx":28,"ny":28,"refTime":"2024-03-18T09:00:00:Z","depth":"2","parameterNumber":2,"parameterNumberName":"U-component_of_CURRENTS"},"data":[0,0,0,0,0,0,0,0,0,0,0,0,0,0,0,0,0,0,0,0,0,0,0,0,0,0,0,0,0,0,0,0,0,0,0,0,0,0,0,0,0,0,0,0,0,0,0,0,0,0,0,0,0,0,0,0,0,0,0.2159,0.2159,0,0.2162,0.2161,0.2161,0.2152,0.2152,0.2152,0.2152,0.2126,0.2126,0.2125,0,0,0,0,0,0,0,0,0,0,0,0,0,0.2129,0.2129,0.2159,0.2159,0.2159,0.2162,0.2161,0.2161,0.2152,0.2152,0.2152,0.2152,0.2127,0.2126,0.2125,0,0,0,0,0,0,0,0,0,0,0,0,0,0.2135,0.2129,0.2159,0.2157,0.2157,0.2162,0.2161,0.2161,0.2152,0.2152,0.2152,0.2152,0.2127,0.2126,0.2125,0.2121,0,0,0.2122,0.2122,0,0,0,0,0,0,0,0,0.2135,0.2136,0.2157,0.2157,0.2157,0.2158,0.2142,0.2147,0.2152,0.2152,0.2152,0.2152,0.2136,0.2134,0.2132,0.212,0.2119,0.2122,0.2122,0.2121,0.2121,0,0,0,0,0,0,0,0.2135,0.2136,0.2157,0.2157,0.2157,0.215,0.2151,0.2142,0.2142,0.2152,0.2152,0.2156,0.2136,0.2133,0.2132,0.2118,0.2122,0.2121,0.2121,0.212,0.2128,0.2128,0,0,0,0,0,0,0.214,0.2136,0.2157,0.2158,0.2148,0.2151,0.2152,0.2156,0.2143,0.2141,0.2156,0.2155,0.2135,0.2133,0.2131,0.2154,0.2121,0.212,0.212,0.2127,0.2128,0.2129,0,0,0,0,0,0,0.2139,0.2142,0.2157,0.2148,0.215,0.2152,0.2157,0.2156,0.216,0.2147,0.2144,0.2161,0.2135,0.2132,0.2131,0.2152,0.212,0.2119,0.2126,0.2127,0.2128,0.2182,0,0,0,0,0,0,0.2138,0.2142,0.2146,0.2149,0.2151,0.2166,0.2157,0.2157,0.2163,0.2163,0.215,0.2147,0.2134,0.2133,0.213,0.215,0.2118,0.2125,0.2127,0.2128,0.218,0.2185,0.219,0,0,0,0,0,0.2137,0.214,0.2146,0.2149,0.2157,0.2167,0.2167,0.2166,0.2164,0.2168,0.2161,0.2148,0.214,0.2133,0.213,0.2149,0.2124,0.2126,0.2128,0.2177,0.2184,0.219,0,0,0,0,0,0,0.2124,0.2139,0.2146,0.2152,0.2165,0.2167,0.2168,0.2172,0.2169,0.2168,0.2154,0.2151,0.2161,0.2145,0.2137,0.2156,0.2132,0.2133,0.217,0.2177,0.2182,0.2193,0.2117,0,0,0,0,0,0.2126,0.2133,0.2149,0.2154,0.2161,0.2168,0.2171,0.2176,0.2176,0.2175,0.2167,0.2161,0.2165,0.2162,0.2158,0.2164,0.2173,0.2176,0.2181,0.2185,0.2192,0.2225,0.2234,0.2134,0.2134,0.2134,0,0,0.2119,0.2132,0.2133,0.2152,0.2159,0.2176,0.2169,0.2179,0.2194,0.2172,0.2181,0.2179,0.2171,0.2182,0.2185,0.2171,0.222,0.2188,0.2192,0.2196,0.2228,0.2238,0.2246,0.2136,0.2135,0.2135,0,0,0.2118,0.2125,0.2135,0.2151,0.2173,0.218,0.2187,0.2198,0.2202,0.2215,0.2208,0.222,0.2212,0.2219,0.222,0.225,0.2249,0.2247,0.2281,0.2312,0.2321,0.2329,0.2364,0.2375,0.2248,0.2248,0.2248,0,0.2108,0.2132,0.2139,0.2162,0.2177,0.2186,0.2207,0.2214,0.2224,0.2237,0.2223,0.2245,0.2234,0.2265,0.2274,0.2263,0.2281,0.2258,0.2321,0.2328,0.2335,0.237,0.238,0.2251,0.225,0.225,0.225,0,0.2126,0.2145,0.2152,0.2186,0.2203,0.222,0.224,0.2257,0.2264,0.2275,0.2306,0.2298,0.2316,0.2315,0.2301,0.2349,0.2347,0.2327,0.2308,0.2349,0.2382,0.2392,0.2255,0.2254,0.2253,0.2252,0,0,0.2098,0.2153,0.2157,0.2182,0.222,0.2235,0.2267,0.2302,0.2333,0.234,0.2381,0.2386,0.2391,0.2393,0.2386,0.2406,0.2469,0.2389,0.2389,0.2429,0.255,0.2576,0.259,0.2463,0.2465,0.2466,0.2558,0,0.211,0.2159,0.2183,0.2224,0.2252,0.2279,0.231,0.2344,0.2369,0.2407,0.2417,0.2446,0.2418,0.2435,0.2454,0.2467,0.2497,0.2447,0.2499,0.2501,0.2523,0.2603,0.2347,0.241,0.2568,0.257,0.2571,0,0.2122,0.2157,0.2204,0.226,0.2273,0.2298,0.2362,0.2392,0.245,0.2473,0.2512,0.2519,0.2561,0.2523,0.2581,0.2552,0.256,0.2563,0.2566,0.2578,0.2547,0.2391,0.2423,0.2588,0.2587,0.2585,0.2584,0,0.2112,0.2169,0.2207,0.2227,0.2291,0.2318,0.2352,0.2414,0.2447,0.2521,0.2557,0.2604,0.2635,0.2653,0.2666,0.263,0.2729,0.2679,0.2713,0.2714,0.2501,0.2482,0.2726,0.2726,0.2726,0.2726,0.2725,0,0.2116,0.2145,0.2206,0.2229,0.227,0.2321,0.2375,0.2419,0.2492,0.255,0.2588,0.265,0.2669,0.272,0.2713,0.2768,0.2775,0.2747,0.2751,0.2515,0.2497,0.2644,0.2633,0.2729,0.2728,0.2728,0.2727,0,0.2093,0.2137,0.2181,0.2249,0.2266,0.2297,0.237,0.2413,0.2492,0.2574,0.2601,0.2698,0.2786,0.2806,0.2858,0.2842,0.2876,0.2886,0.2621,0.2595,0.2823,0.2814,0.2938,0.294,0.2941,0.2943,0.2944,0,0.2083,0.2108,0.2176,0.2198,0.2226,0.2279,0.2313,0.2397,0.2453,0.2611,0.265,0.277,0.2846,0.2948,0.2921,0.294,0.2958,0.274,0.263,0.286,0.2851,0.2839,0.2827,0.236,0.2356,0.2353,0.235,0,0.2057,0.2085,0.212,0.2167,0.2202,0.2242,0.2309,0.2348,0.247,0.2543,0.2679,0.2758,0.2871,0.2789,0.2832,0.2805,0.2717,0.2686,0.2985,0.2371,0.2329,0.2316,0.2321,0.2323,0.2326,0.2328,0.2329,0.2331,0.2024,0.2036,0.2084,0.2118,0.2159,0.2193,0.2198,0.2267,0.2332,0.2393,0.258,0.2589,0.2639,0.2571,0.2523,0.2476,0.2659,0.2516,0.2518,0.2525,0.2467,0.2433,0.2435,0.2438,0.2441,0.2444,0.2446,0,0.1951,0.199,0.2029,0.2059,0.2056,0.2116,0.2175,0.2139,0.2151,0.2238,0.2298,0.2149,0.2121,0.2167,0.2052,0.2103,0.2001,0.2027,0.1837,0.1869,0.1896,0.1797,0.1593,0.159,0.1587,0.1584,0,0,0.1915,0.1915,0.1936,0.1922,0.1954,0.1909,0.1916,0.1881,0.1898,0.185,0.1823,0.1954,0.2091,0.1775,0.1777,0.166,0.1737,0.1601,0.229,0.2096,0.2118,0.2195,0.2085,0,0,0,0,0]},{"header":{"parameterUnit":"m.s-1","parameterCategory":2,"la1":30.2991,"la2":30.254,"lo1":-89.0895,"lo2":-89.0444,"dy":0.0017,"dx":0.0017,"nx":28,"ny":28,"refTime":"2024-03-18T09:00:00:Z","depth":"2","parameterNumber":3,"parameterNumberName":"V-component_of_CURRENTS"},"data":[0,0,0,0,0,0,0,0,0,0,0,0,0,0,0,0,0,0,0,0,0,0,0,0,0,0,0,0,0,0,0,0,0,0,0,0,0,0,0,0,0,0,0,0,0,0,0,0,0,0,0,0,0,0,0,0,0,0,-0.0352,-0.0352,0,-0.0379,-0.0379,-0.038,-0.0401,-0.0402,-0.0402,-0.0402,-0.0433,-0.0434,-0.0435,0,0,0,0,0,0,0,0,0,0,0,0,0,-0.0375,-0.0374,-0.0352,-0.0352,-0.0352,-0.0379,-0.0379,-0.038,-0.0401,-0.0402,-0.0402,-0.0402,-0.0433,-0.0434,-0.0435,0,0,0,0,0,0,0,0,0,0,0,0,0,-0.038,-0.0374,-0.0352,-0.0365,-0.0367,-0.0379,-0.0379,-0.038,-0.0401,-0.0402,-0.0402,-0.0402,-0.0433,-0.0434,-0.0435,-0.0438,0,0,-0.0438,-0.0439,0,0,0,0,0,0,0,0,-0.038,-0.038,-0.0363,-0.0364,-0.0366,-0.0386,-0.0399,-0.0399,-0.0401,-0.0389,-0.0402,-0.0402,-0.0417,-0.0419,-0.0425,-0.0439,-0.044,-0.0438,-0.0439,-0.0439,-0.044,0,0,0,0,0,0,0,-0.0379,-0.0379,-0.0363,-0.0363,-0.0365,-0.039,-0.039,-0.0399,-0.0403,-0.039,-0.0392,-0.0393,-0.0418,-0.0424,-0.0426,-0.0441,-0.0438,-0.0439,-0.044,-0.044,-0.0456,-0.0455,0,0,0,0,0,0,-0.0371,-0.0378,-0.0362,-0.0364,-0.0373,-0.0389,-0.0389,-0.038,-0.0402,-0.0406,-0.0393,-0.0394,-0.0422,-0.0425,-0.0428,-0.0419,-0.0439,-0.044,-0.0441,-0.0456,-0.0455,-0.0455,0,0,0,0,0,0,-0.0371,-0.0369,-0.0361,-0.0372,-0.0372,-0.0387,-0.0377,-0.0381,-0.0386,-0.0404,-0.0408,-0.0394,-0.0423,-0.0426,-0.0432,-0.0421,-0.0441,-0.0442,-0.0456,-0.0456,-0.0455,-0.0411,0,0,0,0,0,0,-0.0371,-0.0368,-0.036,-0.0371,-0.0371,-0.0361,-0.0377,-0.0381,-0.0386,-0.0388,-0.0407,-0.041,-0.0423,-0.043,-0.0433,-0.0423,-0.0443,-0.0456,-0.0456,-0.0455,-0.0413,-0.0409,-0.0406,0,0,0,0,0,-0.0372,-0.0353,-0.0359,-0.0358,-0.0358,-0.036,-0.0363,-0.0376,-0.0386,-0.0383,-0.0397,-0.0409,-0.0429,-0.043,-0.0434,-0.0424,-0.0457,-0.0456,-0.0455,-0.0414,-0.041,-0.0406,0,0,0,0,0,0,-0.0354,-0.0354,-0.0361,-0.0342,-0.0349,-0.0363,-0.0361,-0.0373,-0.0383,-0.0385,-0.0406,-0.0409,-0.0411,-0.0425,-0.0426,-0.0428,-0.0445,-0.0445,-0.0413,-0.0409,-0.0405,-0.0393,-0.0444,0,0,0,0,0,-0.0347,-0.0336,-0.0343,-0.0329,-0.0331,-0.0347,-0.0351,-0.0359,-0.0369,-0.0374,-0.0387,-0.0402,-0.0412,-0.0416,-0.0427,-0.0427,-0.0447,-0.0424,-0.042,-0.0417,-0.041,-0.0435,-0.0433,-0.0453,-0.0453,-0.0453,0,0,-0.0336,-0.0335,-0.0329,-0.0326,-0.0334,-0.0326,-0.035,-0.0349,-0.0342,-0.0376,-0.0369,-0.039,-0.041,-0.041,-0.0412,-0.0419,-0.0423,-0.0417,-0.0414,-0.0408,-0.0434,-0.0432,-0.043,-0.0453,-0.0453,-0.0453,0,0,-0.0308,-0.0308,-0.0291,-0.0293,-0.0299,-0.0309,-0.0307,-0.0318,-0.0323,-0.0323,-0.0346,-0.036,-0.0372,-0.0385,-0.0393,-0.0379,-0.0406,-0.0383,-0.0354,-0.0377,-0.0376,-0.0375,-0.0399,-0.04,-0.038,-0.038,-0.038,0,-0.0295,-0.0271,-0.0288,-0.0272,-0.0268,-0.0298,-0.0279,-0.0286,-0.0298,-0.0297,-0.0313,-0.0338,-0.0359,-0.0359,-0.0357,-0.037,-0.0389,-0.0366,-0.0372,-0.0372,-0.0371,-0.0397,-0.0399,-0.0378,-0.0378,-0.0378,-0.0378,0,-0.0255,-0.0238,-0.0227,-0.0217,-0.0219,-0.0206,-0.0219,-0.0219,-0.0234,-0.0244,-0.025,-0.0284,-0.0298,-0.031,-0.033,-0.0334,-0.0351,-0.0366,-0.0381,-0.0366,-0.0394,-0.0397,-0.0374,-0.0375,-0.0376,-0.0376,0,0,-0.0216,-0.0201,-0.0196,-0.0178,-0.0186,-0.0177,-0.017,-0.0167,-0.0152,-0.018,-0.0167,-0.0202,-0.0229,-0.0241,-0.0272,-0.0296,-0.0317,-0.0326,-0.0329,-0.0346,-0.037,-0.0396,-0.0402,-0.0334,-0.0334,-0.0335,-0.0391,0,-0.0178,-0.0135,-0.0142,-0.0101,-0.008,-0.0101,-0.0087,-0.0092,-0.0105,-0.0101,-0.0146,-0.015,-0.0199,-0.0207,-0.0239,-0.0294,-0.0322,-0.03,-0.0384,-0.0387,-0.0408,-0.0405,-0.0352,-0.0399,-0.0394,-0.0394,-0.0395,0,-0.0132,-0.011,-0.0064,-0.0034,-0.0026,-0.001,0.0006,0.0015,0.0001,-0.0006,-0.0032,-0.0071,-0.0111,-0.0155,-0.0244,-0.0228,-0.0294,-0.0343,-0.0346,-0.0386,-0.0418,-0.0413,-0.0405,-0.04,-0.04,-0.0399,-0.0399,0,-0.009,-0.005,-0.001,0.0001,0.0023,0.0041,0.0048,0.0043,0.0066,0.0049,0.0058,-0.0002,-0.0022,-0.0115,-0.0226,-0.0235,-0.0326,-0.0352,-0.0437,-0.044,-0.0419,-0.042,-0.0415,-0.0415,-0.0415,-0.0415,-0.0415,0,-0.0041,-0.0005,0.0017,0.0044,0.0098,0.0088,0.0138,0.0139,0.0148,0.0191,0.0108,0.0125,-0.0013,-0.0086,-0.02,-0.0325,-0.0309,-0.0431,-0.0455,-0.0403,-0.0402,-0.0422,-0.0422,-0.0417,-0.0416,-0.0416,-0.0416,0,0.0004,0.0016,0.0074,0.0108,0.0123,0.016,0.0203,0.0244,0.0234,0.0285,0.0283,0.0224,0.0129,-0.0021,-0.0164,-0.0279,-0.0404,-0.0453,-0.0385,-0.0402,-0.0511,-0.0508,-0.0556,-0.0558,-0.0559,-0.056,-0.0561,0,0.0034,0.0066,0.0126,0.0168,0.0188,0.0237,0.028,0.0291,0.0341,0.0357,0.0397,0.0312,0.0281,0.0044,-0.016,-0.0366,-0.0408,-0.0476,-0.0491,-0.0505,-0.0525,-0.052,-0.0516,-0.0446,-0.0446,-0.0446,-0.0446,0,0.0096,0.0116,0.0165,0.0244,0.0302,0.0367,0.0427,0.0482,0.0509,0.0542,0.0584,0.0553,0.0338,0.0148,-0.0153,-0.029,-0.0444,-0.0481,-0.0503,-0.0423,-0.0407,-0.0425,-0.0423,-0.0444,-0.0444,-0.0444,-0.0444,-0.0444,0.015,0.0196,0.0261,0.034,0.0407,0.0498,0.0561,0.0635,0.0718,0.0789,0.074,0.0705,0.0469,0.0109,-0.0145,-0.042,-0.0422,-0.0521,-0.0519,-0.0518,-0.0499,-0.0487,-0.0535,-0.0536,-0.0536,-0.0537,-0.0537,0,0.0242,0.0277,0.0354,0.0452,0.0546,0.0553,0.0667,0.0742,0.0855,0.0897,0.0919,0.073,0.0479,0.0192,-0.0196,-0.0446,-0.0448,-0.0534,-0.0475,-0.0475,-0.0475,-0.0452,-0.0477,-0.0478,-0.0479,-0.0479,0,0,0.0292,0.0389,0.0425,0.0573,0.0628,0.0753,0.0821,0.0926,0.0981,0.1049,0.1025,0.0932,0.0574,0.0305,-0.0025,-0.0254,-0.0312,-0.0299,-0.0318,-0.021,-0.0207,-0.0437,-0.0399,0,0,0,0,0]}],[{"header":{"parameterUnit":"m.s-1","parameterCategory":2,"la1":30.2991,"la2":30.254,"lo1":-89.0895,"lo2":-89.0444,"dy":0.0017,"dx":0.0017,"nx":28,"ny":28,"refTime":"2024-03-18T09:00:00:Z","depth":"4","parameterNumber":2,"parameterNumberName":"U-component_of_CURRENTS"},"data":[0,0,0,0,0,0,0,0,0,0,0,0,0,0,0,0,0,0,0,0,0,0,0,0,0,0,0,0,0,0,0,0,0,0,0,0,0,0,0,0,0,0,0,0,0,0,0,0,0,0,0,0,0,0,0,0,0,0,0.1304,0.1305,0,0.1362,0.1363,0.1363,0.1409,0.141,0.141,0.1411,0.1471,0.1472,0.1473,0,0,0,0,0,0,0,0,0,0,0,0,0,0.1184,0.1186,0.1304,0.1305,0.1306,0.1362,0.1363,0.1363,0.1409,0.141,0.1411,0.1411,0.1471,0.1472,0.1473,0,0,0,0,0,0,0,0,0,0,0,0,0,0.1236,0.1187,0.1304,0.1338,0.1341,0.1362,0.1363,0.1363,0.1409,0.141,0.1411,0.1412,0.147,0.1472,0.1473,0.146,0,0,0.1477,0.1478,0,0,0,0,0,0,0,0,0.1233,0.124,0.1332,0.1335,0.134,0.1382,0.1343,0.1397,0.1408,0.138,0.1411,0.1412,0.1443,0.1446,0.1451,0.1463,0.1465,0.1477,0.1478,0.1479,0.1479,0,0,0,0,0,0,0,0.1229,0.1237,0.1324,0.1333,0.1338,0.1334,0.1342,0.1353,0.1402,0.1383,0.1387,0.1398,0.1444,0.1449,0.1452,0.1466,0.1477,0.1479,0.1479,0.148,0.1565,0.1567,0,0,0,0,0,0,0.123,0.1234,0.1322,0.1326,0.1291,0.1335,0.1345,0.1365,0.1402,0.141,0.1397,0.14,0.1446,0.1451,0.1455,0.1531,0.1479,0.148,0.1481,0.1564,0.1566,0.1567,0,0,0,0,0,0,0.1227,0.1237,0.132,0.1283,0.1294,0.1337,0.1359,0.1366,0.1402,0.1413,0.1421,0.143,0.1447,0.1453,0.1494,0.153,0.1481,0.1482,0.1562,0.1564,0.1566,0.1626,0,0,0,0,0,0,0.1223,0.1236,0.1263,0.1284,0.1296,0.1351,0.1358,0.1366,0.1407,0.1412,0.1444,0.1449,0.1449,0.1492,0.1496,0.1531,0.1483,0.156,0.1563,0.1566,0.1622,0.163,0.1637,0,0,0,0,0,0.1219,0.1247,0.1264,0.1276,0.1328,0.1352,0.1359,0.139,0.1408,0.1426,0.1453,0.1449,0.1512,0.1495,0.1498,0.1535,0.1559,0.1562,0.1565,0.1619,0.1629,0.1637,0,0,0,0,0,0,0.1213,0.1255,0.1275,0.1317,0.1343,0.1362,0.1388,0.1406,0.1441,0.1457,0.1465,0.1472,0.1523,0.1518,0.1499,0.1568,0.1536,0.154,0.1576,0.1584,0.1591,0.1593,0.1484,0,0,0,0,0,0.1223,0.1258,0.1289,0.1326,0.1342,0.137,0.1391,0.1411,0.1439,0.1457,0.1481,0.1507,0.1532,0.1551,0.1569,0.1603,0.1605,0.163,0.1637,0.1643,0.1647,0.168,0.1691,0.1578,0.1578,0.1578,0,0,0.1232,0.1261,0.1282,0.1328,0.1352,0.138,0.1386,0.1425,0.1457,0.1456,0.1516,0.1535,0.1548,0.1591,0.1613,0.1596,0.1678,0.1647,0.1652,0.1653,0.1685,0.1696,0.1706,0.158,0.1579,0.1579,0,0,0.1251,0.1293,0.1322,0.1347,0.1392,0.1407,0.1426,0.1463,0.1493,0.1541,0.1555,0.1596,0.1633,0.1651,0.1663,0.1718,0.1716,0.1731,0.1769,0.1802,0.1811,0.1819,0.1843,0.1853,0.1733,0.1733,0.1734,0,0.1263,0.1305,0.1333,0.1363,0.1391,0.1424,0.1455,0.1485,0.1535,0.1564,0.1571,0.1648,0.166,0.1712,0.1735,0.1735,0.1752,0.1735,0.1811,0.1819,0.1827,0.1849,0.1859,0.1737,0.1736,0.1736,0.1736,0,0.1289,0.1335,0.1354,0.1405,0.1436,0.1471,0.151,0.1555,0.1596,0.1624,0.1697,0.1718,0.1765,0.1777,0.1774,0.1839,0.1834,0.1817,0.1788,0.1842,0.1862,0.1872,0.1741,0.174,0.1739,0.1738,0,0,0.1282,0.1359,0.1369,0.1402,0.1464,0.1488,0.155,0.1608,0.1658,0.171,0.1772,0.182,0.1844,0.1858,0.1869,0.1895,0.1963,0.1886,0.1886,0.1907,0.2041,0.1922,0.1921,0.1967,0.1968,0.197,0.2036,0,0.1298,0.1359,0.1395,0.1458,0.1491,0.1544,0.1596,0.1655,0.1711,0.1778,0.1817,0.1878,0.1871,0.1908,0.1937,0.196,0.1991,0.1947,0.1987,0.1988,0.1874,0.1928,0.1976,0.2043,0.2045,0.2047,0.2048,0,0.1304,0.1349,0.1412,0.1492,0.1513,0.1559,0.1654,0.1706,0.1797,0.1843,0.1912,0.1944,0.2011,0.1988,0.2061,0.2038,0.205,0.2055,0.2058,0.193,0.1886,0.1977,0.2065,0.2063,0.2062,0.2061,0.206,0,0.1271,0.1357,0.1412,0.1439,0.1533,0.1583,0.1642,0.1735,0.179,0.1897,0.1948,0.2022,0.2074,0.2105,0.213,0.2109,0.2193,0.216,0.2063,0.2055,0.2115,0.2105,0.2207,0.2207,0.2207,0.2207,0.2207,0,0.1257,0.1302,0.1409,0.1438,0.151,0.1584,0.167,0.1739,0.1843,0.1906,0.1987,0.2041,0.2109,0.216,0.2164,0.2147,0.2227,0.2079,0.2066,0.2139,0.2131,0.2122,0.2111,0.2209,0.2209,0.2208,0.2208,0,0.1203,0.1274,0.134,0.1455,0.1496,0.1551,0.1678,0.1737,0.1846,0.1933,0.1973,0.2082,0.2144,0.2192,0.2245,0.2181,0.218,0.2153,0.2243,0.2233,0.201,0.2002,0.2043,0.2039,0.2036,0.2033,0.2031,0,0.1176,0.121,0.1339,0.1384,0.1442,0.1538,0.1601,0.1725,0.178,0.1939,0.1965,0.2076,0.2131,0.2107,0.217,0.2173,0.2144,0.2128,0.2048,0.2011,0.1996,0.1992,0.1988,0.2026,0.2026,0.2025,0.2024,0,0.1125,0.1185,0.1242,0.1337,0.1414,0.1485,0.1584,0.1612,0.175,0.1862,0.1905,0.1937,0.2003,0.2029,0.2052,0.2049,0.2126,0.2095,0.21,0.2025,0.1992,0.1979,0.1978,0.2013,0.2015,0.2016,0.2016,0,0.1089,0.1114,0.1203,0.1273,0.1364,0.1409,0.1469,0.1532,0.1598,0.1756,0.177,0.1883,0.1984,0.1968,0.1993,0.1979,0.1937,0.1857,0.1874,0.1886,0.1803,0.1735,0.1676,0,0,0,0,0,0.1044,0.1069,0.1134,0.1206,0.1291,0.1342,0.1447,0.1508,0.1632,0.1616,0.1684,0.1733,0.1767,0.1829,0.1781,0.1934,0.1954,0.1871,0.1872,0.1955,0.1967,0.1883,0,0,0,0,0,0,0.1016,0.1072,0.1103,0.1136,0.117,0.125,0.1311,0.1397,0.1386,0.1513,0.1535,0.1629,0.1685,0.1772,0.1748,0.1767,0.1731,0.1942,0.1937,0.1948,0.1959,0.1969,0.1886,0,0,0,0,0]},{"header":{"parameterUnit":"m.s-1","parameterCategory":2,"la1":30.2991,"la2":30.254,"lo1":-89.0895,"lo2":-89.0444,"dy":0.0017,"dx":0.0017,"nx":28,"ny":28,"refTime":"2024-03-18T09:00:00:Z","depth":"4","parameterNumber":3,"parameterNumberName":"V-component_of_CURRENTS"},"data":[0,0,0,0,0,0,0,0,0,0,0,0,0,0,0,0,0,0,0,0,0,0,0,0,0,0,0,0,0,0,0,0,0,0,0,0,0,0,0,0,0,0,0,0,0,0,0,0,0,0,0,0,0,0,0,0,0,0,0.0179,0.0179,0,0.0133,0.0133,0.0132,0.0107,0.0107,0.0107,0.0107,0.0062,0.0061,0.006,0,0,0,0,0,0,0,0,0,0,0,0,0,0.0241,0.024,0.0179,0.0179,0.0178,0.0133,0.0133,0.0132,0.0107,0.0107,0.0107,0.0107,0.0062,0.0061,0.006,0,0,0,0,0,0,0,0,0,0,0,0,0,0.0207,0.024,0.0179,0.016,0.0157,0.0133,0.0133,0.0132,0.0107,0.0107,0.0107,0.0107,0.0063,0.0061,0.006,0.0053,0,0,0.0055,0.0054,0,0,0,0,0,0,0,0,0.0209,0.0205,0.0163,0.0161,0.0158,0.0125,0.0138,0.0106,0.0107,0.0127,0.0107,0.0106,0.0083,0.008,0.0072,0.0051,0.0049,0.0055,0.0054,0.0053,0.0053,0,0,0,0,0,0,0,0.0212,0.0207,0.0162,0.0162,0.0159,0.0152,0.0147,0.0132,0.0107,0.0125,0.0123,0.0117,0.0082,0.0074,0.0071,0.0049,0.0055,0.0053,0.0052,0.0052,0.0005,0.0005,0,0,0,0,0,0,0.0216,0.0209,0.0163,0.016,0.0183,0.0151,0.0145,0.0136,0.0107,0.0102,0.0117,0.0116,0.0077,0.0073,0.0069,0.0058,0.0053,0.0051,0.0051,0.0006,0.0005,0.0005,0,0,0,0,0,0,0.0218,0.0213,0.0165,0.0183,0.0177,0.015,0.014,0.0136,0.0127,0.0101,0.0096,0.0113,0.0077,0.0072,0.0056,0.0056,0.0051,0.0049,0.0006,0.0006,0.0005,0.0036,0,0,0,0,0,0,0.022,0.0213,0.021,0.0184,0.0176,0.0155,0.014,0.0135,0.0123,0.0121,0.0095,0.0091,0.0076,0.0059,0.0055,0.0053,0.0048,0.0006,0.0006,0.0005,0.0035,0.0036,0.0037,0,0,0,0,0,0.0222,0.0218,0.021,0.0204,0.0171,0.0155,0.0151,0.0131,0.0123,0.0122,0.0103,0.0092,0.0053,0.0058,0.0053,0.0051,0.0007,0.0006,0.0005,0.0034,0.0036,0.0037,0,0,0,0,0,0,0.0242,0.0214,0.0205,0.0192,0.0177,0.0151,0.0147,0.0133,0.0117,0.0114,0.0091,0.0085,0.0071,0.0056,0.0062,0.0035,0.0027,0.0025,0.005,0.0052,0.0053,0.0066,0.0047,0,0,0,0,0,0.0245,0.0236,0.021,0.0202,0.0195,0.0172,0.0162,0.015,0.0131,0.0123,0.0104,0.0083,0.0065,0.0055,0.0038,0.0025,0.0006,0.0019,0.002,0.0021,0.0027,-0.0004,-0.0005,0.0003,0.0003,0.0003,0,0,0.025,0.0234,0.0229,0.0206,0.0192,0.0188,0.0166,0.0154,0.0152,0.0121,0.0112,0.0088,0.0062,0.0048,0.004,0.0035,0.0008,0.0021,0.0022,0.0027,-0.0005,-0.0006,-0.0006,0.0003,0.0003,0.0003,0,0,0.0263,0.0243,0.0243,0.0233,0.0215,0.0199,0.0198,0.0173,0.0164,0.0149,0.0126,0.0103,0.0076,0.0057,0.0044,0.0041,0.0017,0.0032,0.0049,0.0018,0.0017,0.0016,-0.0011,-0.0015,0.0032,0.0032,0.0032,0,0.0271,0.0268,0.0242,0.0243,0.0239,0.0208,0.0213,0.0198,0.0172,0.0166,0.0151,0.0105,0.0081,0.0063,0.0059,0.0045,0.0024,0.0047,0.0021,0.0019,0.0018,-0.001,-0.0015,0.0033,0.0033,0.0033,0.0033,0,0.0287,0.0285,0.0286,0.0276,0.0268,0.0266,0.0244,0.0235,0.0216,0.0197,0.0174,0.0136,0.0109,0.0093,0.0074,0.0052,0.004,0.0028,0.002,0.0019,-0.0011,-0.0016,0.0035,0.0035,0.0035,0.0034,0,0,0.0307,0.0299,0.0301,0.0309,0.0287,0.0285,0.028,0.0268,0.0268,0.0231,0.0225,0.0179,0.0152,0.0135,0.0104,0.0072,0.0038,0.0048,0.0045,0.0026,-0.0029,-0.0034,-0.0041,0.0021,0.002,0.002,-0.0047,0,0.0331,0.0347,0.0332,0.035,0.0358,0.0332,0.0333,0.0316,0.0293,0.0278,0.023,0.021,0.0171,0.0156,0.0118,0.006,0.0027,0.0058,-0.0031,-0.0033,-0.0033,-0.0046,0.0018,-0.0051,-0.0052,-0.0053,-0.0053,0,0.0357,0.0365,0.039,0.0396,0.0397,0.0401,0.0398,0.0395,0.0362,0.0344,0.0306,0.0265,0.0214,0.0181,0.0082,0.0103,0.0041,-0.0007,-0.0011,-0.0027,-0.0048,-0.0051,-0.0063,-0.0062,-0.0061,-0.0061,-0.006,0,0.0397,0.0407,0.0432,0.0434,0.0433,0.0441,0.0438,0.0416,0.0422,0.0385,0.0376,0.0306,0.0274,0.0188,0.0081,0.008,-0.0028,-0.0043,-0.0106,-0.0107,-0.0094,-0.0093,-0.0112,-0.0112,-0.0111,-0.0111,-0.0111,0,0.043,0.0451,0.0455,0.0471,0.0503,0.0484,0.0509,0.0496,0.0481,0.0488,0.0415,0.0399,0.0273,0.0194,0.0095,-0.002,-0.0021,-0.0103,-0.0125,-0.0081,-0.0077,-0.0098,-0.0096,-0.0114,-0.0113,-0.0113,-0.0112,0,0.0469,0.0472,0.0506,0.0518,0.0526,0.0549,0.0564,0.0578,0.0555,0.0561,0.0551,0.0466,0.0356,0.0228,0.0083,0.0005,-0.0108,-0.0148,-0.0089,-0.0106,-0.0169,-0.0165,-0.0224,-0.0225,-0.0225,-0.0226,-0.0226,0,0.0489,0.0511,0.0548,0.0571,0.0578,0.0608,0.0629,0.0621,0.0632,0.0601,0.0604,0.0505,0.0432,0.0229,0.0089,-0.01,-0.0127,-0.0184,-0.0183,-0.0166,-0.0181,-0.0176,-0.017,-0.0227,-0.0227,-0.0228,-0.0228,0,0.0528,0.0544,0.057,0.0618,0.065,0.0684,0.0707,0.0722,0.0709,0.0698,0.0642,0.0527,0.0403,0.0234,0.0084,-0.005,-0.0147,-0.0191,-0.0191,-0.019,-0.0171,-0.0184,-0.0178,-0.023,-0.023,-0.0229,-0.0229,0,0.0557,0.0581,0.0615,0.0652,0.0699,0.0731,0.0745,0.0743,0.0749,0.0708,0.0692,0.0549,0.0467,0.026,0.0125,-0.0012,-0.005,-0.0091,-0.0096,-0.0096,-0.0042,0.0002,-0.0023,0,0,0,0,0,0.0576,0.0598,0.064,0.0676,0.0722,0.0747,0.0781,0.0785,0.078,0.0749,0.0717,0.0598,0.0386,0.0295,0.0156,0.0108,-0.0075,-0.006,-0.0125,-0.0242,-0.024,-0.02,0,0,0,0,0,0,0.0586,0.063,0.0641,0.0685,0.0713,0.0761,0.0786,0.0786,0.0759,0.0737,0.0626,0.0567,0.0361,0.0466,0.0154,0.0112,0.0052,-0.0159,-0.0162,-0.0244,-0.0241,-0.0239,-0.0197,0,0,0,0,0]}]]